Index of /blog/images/assets/images.sixrevisions.com/2010/11

 NameLast modifiedSizeDescription

 Parent Directory   -  
 01-01_web_designers_..>2018-12-20 13:02 31K 
 01-02_web_designers_..>2018-12-20 13:02 8.5K 
 01-03_web_designers_..>2018-12-20 13:02 7.0K 
 02-01_social_network..>2018-12-20 13:02 23K 
 03-01_wampserver_wor..>2018-12-20 13:02 32K 
 03-02_wampserver.jpg 2019-01-21 13:13 46K 
 03-03_wampserver_sou..>2018-12-20 13:02 34K 
 03-04_wampserver_lic..>2018-12-20 13:02 44K 
 03-05_wampserver_loc..>2018-12-20 13:02 34K 
 03-06_wampserver_ico..>2018-12-20 13:02 32K 
 03-07_wampserver_rec..>2018-12-20 13:02 35K 
 03-08_wampserver_mai..>2018-12-20 13:02 26K 
 03-09_wampserver_fin..>2018-12-20 13:02 35K 
 03-10_wampserver_ico..>2018-12-20 13:02 4.6K 
 03-11_wampserver_ser..>2018-12-20 13:02 27K 
 03-12_wampserver_php..>2018-12-20 13:02 28K 
 03-13_wampserver_wor..>2018-12-20 13:02 26K 
 03-14_wampserver_run..>2018-12-20 13:02 12K 
 03-15_wampserver_wor..>2018-12-20 13:02 13K 
 03-16_wampserver_wor..>2018-12-20 13:02 47K 
 03-17_wamp_run_phpin..>2018-12-20 13:02 29K 
 03-18_wampserver_ena..>2019-01-21 13:13 33K 
 03-19_wampserver_new..>2018-12-20 13:02 25K 
 03-20_wampserver_liv..>2018-12-20 13:02 35K 
 03-21_wampserver_wpc..>2018-12-20 13:02 36K 
 03-22_wampserver_exp..>2018-12-20 13:02 42K 
 03-23_wampster_impor..>2018-12-20 13:02 34K 
 04-01_launch_website..>2018-12-20 13:02 13K 
 04-02_sitemapxmldotc..>2018-12-20 13:02 4.8K 
 04-03_googleanalytic..>2018-12-20 13:02 34K 
 04-04_googlewebmaste..>2018-12-20 13:02 43K 
 04-05_dmoz_suggest.png 2018-12-20 13:02 10K 
 04-05_google_alerts.png2018-12-20 13:02 13K 
 04-06_uptimerobot.png 2018-12-20 13:02 41K 
 04-07_google_alerts_..>2018-12-20 13:02 12K 
 04-08_yslow.png 2018-12-20 13:02 18K 
 05-01_php_conditiona..>2018-12-20 13:02 20K 
 05-02_example_statem..>2018-12-20 13:02 2.1K 
 05-03_example_if.png 2018-12-20 13:02 4.9K 
 05-04_example_else.png 2018-12-20 13:02 6.0K 
 05-05_example_elseif..>2018-12-20 13:02 5.5K 
 05-06_example_goto.png 2018-12-20 13:02 1.9K 
 05-07_example_switch..>2018-12-20 13:02 6.2K 
 06-01_blinksale_give..>2018-12-20 13:02 34K 
 06-02_dashboard.jpg 2018-12-20 13:02 45K 
 06-03_estimates.jpg 2018-12-20 13:02 38K 
 06-04_invoices.jpg 2018-12-20 13:02 39K 
 06-05_instant_paymen..>2018-12-20 13:02 37K 
 07-01_codemyconcept_..>2018-12-20 13:02 25K 
 07-02_orderform.jpg 2018-12-20 13:02 47K 
 07-03_mydish.jpg 2018-12-20 13:02 60K 
 07-04_main_coast_pro..>2018-12-20 13:02 58K 
 07-05_amta.jpg 2018-12-20 13:02 58K 
 07-06_dylan_mullins.jpg2018-12-20 13:02 18K 
 07-07_codemyconcept_..>2018-12-20 13:02 28K 
 08-01_giveaway_campa..>2018-12-20 13:02 33K 
 08-02_giveaway_campa..>2018-12-20 13:02 27K 
 09-01_privacy_user_e..>2018-12-20 13:02 20K 
 09-02_paypal.jpg 2018-12-20 13:02 38K 
 09-03_twitter_login.png2018-12-20 13:02 9.5K 
 09-04_analytics.png 2018-12-20 13:02 28K 
 09-05_amazon_signup.jpg2018-12-20 13:02 29K 
 09-06_facebook_priva..>2018-12-20 13:02 22K 
 09-07_emails.png 2018-12-20 13:02 23K 
 10-01_chrome_extensi..>2018-12-20 13:02 33K 
 10-02_awesome_screen..>2018-12-20 13:02 43K 
 10-03_webdeveloper.jpg 2018-12-20 13:02 31K 
 10-04_window_resizer..>2018-12-20 13:02 21K 
 10-05_stay_focusd.jpg 2018-12-20 13:02 46K 
 10-06_apture_highlig..>2019-01-21 13:13 49K 
 10-07_dayhiker.jpg 2018-12-20 13:02 38K 
 10-08_diigo_webhighl..>2019-01-21 13:13 68K 
 10-09_citation_manag..>2018-12-20 13:02 49K 
 10-10_yoono.jpg 2019-01-21 13:13 46K 
 10-11_chromey_calc.png 2018-12-20 13:02 38K 
 10-12_em_calculator.png2018-12-20 13:02 25K 
 10-13_builtwith.jpg 2019-01-21 13:13 49K 
 10-14_chrome_develop..>2018-12-20 13:02 20K 
 11-01_webdesigners_v..>2018-12-20 13:02 16K 
 11-02_webdesigners_v..>2019-01-21 13:13 62K 
 12-01_better_code_de..>2018-12-20 13:02 34K 
 12-02_template.jpg 2018-12-20 13:02 37K 
 12-03_doctypes.png 2018-12-20 13:02 19K 
 12-04_naming_convent..>2018-12-20 13:02 13K 
 13-01_wordpress_comm..>2018-12-20 13:02 4.4K 
 13-02_custom_fields_..>2018-12-20 13:02 10K 
 14-01_cu3er_winner_a..>2018-12-20 13:02 17K 
 14-02_cu3ber_giveawa..>2018-12-20 13:02 39K 
 15-01_human_behavior..>2018-12-20 13:02 27K 
 15-02_stumbleupon_fp..>2018-12-20 13:02 15K 
 15-03_digital_hierar..>2018-12-20 13:02 17K 
 15-04_amazon_kindle_..>2018-12-20 13:02 26K 
 15-05_useitdotcom.jpg 2018-12-20 13:02 46K 
 15-06_yahoo_answers_..>2018-12-20 13:02 17K 
 15-07_w3c_quiz.png 2018-12-20 13:02 5.4K 
 15-08_mobile_devices..>2018-12-20 13:02 18K 
 15-09_pagenotfound.png 2018-12-20 13:02 5.7K 
 15-10_glue.jpg 2018-12-20 13:02 28K 
 15-11_positive_reinf..>2018-12-20 13:02 30K 
 16-01_howto_design_c..>2018-12-20 13:02 22K 
 16-02_ted_website.jpg 2019-01-21 13:13 60K 
 16-03_adobemax_websi..>2019-01-21 13:13 47K 
 16-04_tc_website.jpg 2019-01-21 13:13 51K 
 16-05_ted.jpg 2018-12-20 13:02 49K 
 16-06_adobe_max.jpg 2018-12-20 13:02 39K 
 16-07_aigagain.png 2018-12-20 13:02 28K 
 16-08_aneventapart.jpg 2018-12-20 13:02 48K 
 16-09_howconference.png2019-01-21 13:13 56K 
 16-10_fowd_site.jpg 2018-12-20 13:02 37K 
 16-11_sponsors.jpg 2018-12-20 13:02 19K 
 16-12_speaker.jpg 2018-12-20 13:02 22K 
 16-13_speakers_at_fo..>2018-12-20 13:02 31K 
 16-14_adobe_max_conv..>2018-12-20 13:02 39K 
 16-15_concession_sta..>2018-12-20 13:02 33K 
 16-16_new_york_skyli..>2018-12-20 13:02 43K 
 16-17_twitter_hash.png 2018-12-20 13:02 14K 
 16-18_attendees.jpg 2018-12-20 13:02 41K 
 17-01_web_designer_p..>2018-12-20 13:02 39K 
 17-02_lossy_lossless..>2019-01-21 13:13 50K 
 17-03_png24_png8.jpg 2018-12-20 13:02 47K 
 17-04_rss_png8.png 2018-12-20 13:02 3.7K 
 17-05_rss_png24.png 2018-12-20 13:02 5.7K 
 17-06_rss_gif.gif 2018-12-20 13:02 4.2K 
 17-07_rss_png8.png 2018-12-20 13:02 3.7K 
 17-08_rss_png24.png 2018-12-20 13:02 5.4K 
 17-09_rss_gif.gif 2018-12-20 13:02 3.7K 
 17-11_spring_flower_..>2019-01-21 13:13 23K 
 17-12_spring_flower_..>2018-12-20 13:02 14K 
 17-13_spring_flower_..>2019-01-21 13:13 23K 
 17-14_spring_flower_..>2018-12-20 13:02 14K 
 17-15_saveforweb_pho..>2018-12-20 13:02 13K 
 17-16_png8_256colors..>2018-12-20 13:02 3.7K 
 17-17_png8_64colors.png2018-12-20 13:02 2.2K 
 17-18_png8_32colors.png2018-12-20 13:02 1.8K 
 17-19_png8_16colors.png2018-12-20 13:02 1.4K 
 17-20_search_png24.png 2018-12-20 13:02 30K 
 17-21_search_png24_p..>2018-12-20 13:02 24K 
 18-01_faq_bandage_ld..>2018-12-20 13:02 17K 
 18-02_ebayhelp.jpg 2018-12-20 13:02 34K 
 18-03_newegg_faq.png 2018-12-20 13:02 32K 
 18-04_woot_faq.gif 2019-01-21 13:13 37K 
 18-05_neweggcontact.jpg2018-12-20 13:02 24K 
 19-01_fat_free_webde..>2018-12-20 13:02 20K 
 19-02_dell.jpg 2018-12-20 13:02 27K 
 19-03_stock_photo_sh..>2018-12-20 13:02 22K 
 19-04_photo_good.jpg 2018-12-20 13:02 23K 
 20-01_blinksale_winn..>2018-12-20 13:02 41K 
 20-02_blinksale_winn..>2018-12-20 13:02 29K 
 21-01_web_app_site_d..>2019-01-21 13:13 42K 
 21-02_web_app_site_d..>2019-01-21 13:13 69K 
 21-03_go_to_tutorial..>2018-12-20 13:02 4.8K 
 22-01_winner_announc..>2018-12-20 13:02 34K 
 22-02_codemyconcept_..>2018-12-20 13:02 26K 
 23-01_tips_beginning..>2018-12-20 13:02 30K 
 23-02_drupalhome.jpg 2019-01-21 13:13 41K 
 23-03_aregularsite.jpg 2018-12-20 13:02 42K 
 23-04_createpage.jpg 2018-12-20 13:02 46K 
 23-05_findthenodenum..>2018-12-20 13:02 43K 
 23-06_errorreporting..>2018-12-20 13:02 38K 
 23-07-admin_menu_mod..>2018-12-20 13:02 20K 
 23-08_flush_cache.jpg 2018-12-20 13:02 31K 
 23-09_drupal_content..>2019-01-21 13:13 45K 
 23-10_drupal_user_ro..>2018-12-20 13:02 45K 
 23-11_wheretostoreth..>2018-12-20 13:02 14K 
 23-12_admin_choose_d..>2018-12-20 13:02 26K 
 23-13_major_site_inf..>2018-12-20 13:02 32K 
 23-14_clean_urls.jpg 2018-12-20 13:02 25K 
 23-15_ckeditor.jpg 2018-12-20 13:02 18K 
 23-16_contactform.jpg 2018-12-20 13:02 28K 
 23-17_menus.jpg 2018-12-20 13:02 33K 
 23-18_views.jpg 2018-12-20 13:02 29K 
 24-01_what_web_desig..>2018-12-20 13:02 39K 
 24-02_what_web_desig..>2019-01-21 13:13 191K 
 24-03_what_web_desig..>2018-12-20 13:02 659K 
 25-01_sponsor_love_n..>2018-12-20 13:02 29K 
 25-02_trackrecord.jpg 2019-01-21 13:13 41K 
 25-03_pagelines.jpg 2018-12-20 13:02 31K 
 25-04_squarespace.jpg 2018-12-20 13:02 30K 
 26-01_css_tips_trick..>2018-12-20 13:02 13K 
 26-02_conditional_co..>2018-12-20 13:02 2.9K 
 26-03_iphone_friendl..>2018-12-20 13:02 26K 
 26-04_css_layout.jpg 2018-12-20 13:02 29K 
 26-05_web_safe.png 2018-12-20 13:02 18K 
 26-06_design_build.jpg 2018-12-20 13:02 22K 
 27-01_history_css_re..>2018-12-20 13:02 34K 
 27-02_paragraph.png 2018-12-20 13:02 38K 
 28-01_elegant_patter..>2018-12-20 13:02 36K 
 28-02_elegant_patter..>2019-01-21 13:13 46K 
 29-01_ecommerce_icon..>2019-01-21 13:13 36K 
 29-02_ecommerce_icon..>2019-01-21 13:13 73K 
 30-01_which_design_j..>2018-12-20 13:02 26K 
 30-02_which_design_j..>2019-01-21 13:13 92K